FDX3901 KLAX-KEWR

Flight info

Callsign FDX3901
Flight time N/A
Altitude 33000
Route ORCKA5 LAS J146 DICEE/N0479F350 J146 DVC HBU MCK OVR DSM EVOTE NELLS KEEHO J584 SLT FQM3
Aircraft B77L/H-SDE1E2E3FGHIJ2J3J4J5M1RWXY/LB1D1

Departure

Time 2026-04-24 07:14
Airport Los Angeles International Airport (KLAX)

Arrival

Time N/A
Airport Newark Liberty International Airport (KEWR)
Time Latitude Longitude Altitude Speed Heading
2026-04-24 06:51 33.93409 -118.38774 99 ft 0 kts 173°
2026-04-24 07:03 33.93414 -118.38774 97 ft 4 kts 174°
2026-04-24 07:03 33.93431 -118.38775 97 ft 4 kts 188°
2026-04-24 07:03 33.93457 -118.38766 96 ft 4 kts 212°
2026-04-24 07:03 33.93476 -118.38746 95 ft 4 kts 245°
2026-04-24 07:04 33.93478 -118.38727 95 ft 4 kts 223°
2026-04-24 07:04 33.93480 -118.38722 99 ft 1 kts 263°
2026-04-24 07:09 33.93480 -118.38749 97 ft 8 kts 281°
2026-04-24 07:09 33.93532 -118.38783 98 ft 10 kts
2026-04-24 07:10 33.93569 -118.38711 97 ft 12 kts 81°
2026-04-24 07:10 33.93577 -118.38635 101 ft 2 kts 82°
2026-04-24 07:10 33.93579 -118.38612 101 ft 5 kts 85°
2026-04-24 07:10 33.93585 -118.38539 98 ft 11 kts 83°
2026-04-24 07:11 33.93595 -118.38450 101 ft 11 kts 82°
2026-04-24 07:11 33.93607 -118.38340 100 ft 12 kts 82°
2026-04-24 07:11 33.93628 -118.38293 100 ft 0 kts 34°
2026-04-24 07:12 33.93670 -118.38282 102 ft 15 kts
2026-04-24 07:12 33.93727 -118.38307 105 ft 8 kts 289°
2026-04-24 07:12 33.93727 -118.38376 103 ft 9 kts 259°
2026-04-24 07:13 33.93724 -118.38399 104 ft 0 kts 262°
2026-04-24 07:13 33.93724 -118.38400 104 ft 4 kts 262°
2026-04-24 07:13 33.93687 -118.38758 99 ft 80 kts 263°
2026-04-24 07:13 33.93591 -118.39691 100 ft 143 kts 262°
2026-04-24 07:14 33.93453 -118.41079 246 ft 179 kts 264°
2026-04-24 07:14 33.93302 -118.42582 793 ft 183 kts 262°
2026-04-24 07:14 33.93154 -118.44124 1334 ft 187 kts 263°
2026-04-24 07:14 33.92998 -118.45689 1844 ft 192 kts 260°
2026-04-24 07:15 33.92590 -118.47306 2052 ft 212 kts 249°
2026-04-24 07:15 33.92007 -118.49036 2274 ft 235 kts 247°
2026-04-24 07:15 33.91269 -118.50877 2558 ft 252 kts 233°
2026-04-24 07:15 33.89925 -118.52208 3116 ft 260 kts 203°
2026-04-24 07:16 33.88141 -118.52601 3808 ft 266 kts 175°
2026-04-24 07:16 33.86348 -118.52048 4512 ft 269 kts 160°
2026-04-24 07:16 33.84599 -118.51175 5229 ft 273 kts 157°
2026-04-24 07:16 33.82856 -118.50250 6006 ft 274 kts 156°
2026-04-24 07:17 33.81119 -118.49309 6741 ft 273 kts 152°
2026-04-24 07:17 33.79658 -118.47810 7216 ft 283 kts 123°
2026-04-24 07:17 33.78970 -118.45589 7823 ft 289 kts 95°
2026-04-24 07:17 33.79183 -118.43188 8431 ft 293 kts 69°
2026-04-24 07:18 33.80244 -118.41098 9013 ft 297 kts 43°
2026-04-24 07:18 33.81960 -118.39751 9615 ft 296 kts 15°
2026-04-24 07:18 33.83974 -118.39523 10194 ft 292 kts 346°
2026-04-24 07:18 33.85922 -118.40302 10460 ft 304 kts 334°
2026-04-24 07:19 33.87940 -118.41340 10634 ft 327 kts 334°
2026-04-24 07:19 33.90147 -118.42260 10746 ft 348 kts 348°
2026-04-24 07:19 33.92645 -118.42051 10992 ft 376 kts 15°
2026-04-24 07:19 33.94956 -118.40458 11510 ft 394 kts 41°
2026-04-24 07:20 33.96656 -118.37828 12121 ft 402 kts 57°
2026-04-24 07:20 33.98122 -118.34916 12759 ft 411 kts 56°
2026-04-24 07:20 33.99687 -118.32005 13517 ft 416 kts 54°
2026-04-24 07:20 34.01317 -118.29102 14246 ft 421 kts 53°
2026-04-24 07:21 34.02981 -118.26177 14961 ft 425 kts 53°
2026-04-24 07:21 34.04663 -118.23222 15710 ft 430 kts 53°
2026-04-24 07:21 34.06359 -118.20236 16409 ft 434 kts 53°
2026-04-24 07:21 34.08073 -118.17209 17066 ft 441 kts 53°
2026-04-24 07:22 34.09814 -118.14130 17721 ft 446 kts 53°
2026-04-24 07:22 34.11573 -118.11017 18375 ft 451 kts 53°
2026-04-24 07:22 34.13348 -118.07871 18956 ft 456 kts 53°
2026-04-24 07:22 34.15139 -118.04693 19574 ft 459 kts 53°
2026-04-24 07:23 34.16942 -118.01493 20205 ft 462 kts 53°
2026-04-24 07:23 34.18762 -117.98259 20808 ft 467 kts 53°
2026-04-24 07:23 34.20595 -117.94999 21362 ft 471 kts 53°
2026-04-24 07:23 34.22446 -117.91703 21893 ft 476 kts 53°
2026-04-24 07:24 34.24313 -117.88375 22491 ft 480 kts 53°
2026-04-24 07:24 34.26191 -117.85024 23078 ft 483 kts 53°
2026-04-24 07:24 34.28081 -117.81651 23642 ft 487 kts 53°
2026-04-24 07:24 34.29964 -117.78285 24096 ft 491 kts 53°
2026-04-24 07:25 34.31884 -117.74851 24556 ft 495 kts 54°
2026-04-24 07:25 34.33819 -117.71385 25000 ft 498 kts 53°
2026-04-24 07:25 34.35770 -117.67905 25461 ft 502 kts 53°
2026-04-24 07:25 34.37794 -117.64438 25911 ft 506 kts 51°
2026-04-24 07:26 34.39897 -117.60934 26356 ft 509 kts 51°
2026-04-24 07:26 34.41970 -117.57513 26792 ft 513 kts 51°
2026-04-24 07:26 34.44084 -117.54021 27224 ft 516 kts 51°
2026-04-24 07:26 34.46206 -117.50494 27772 ft 518 kts 51°
2026-04-24 07:27 34.48325 -117.46951 28249 ft 521 kts 51°
2026-04-24 07:27 34.50448 -117.43385 28689 ft 523 kts 51°
2026-04-24 07:27 34.52582 -117.39792 29079 ft 527 kts 51°
2026-04-24 07:27 34.54726 -117.36174 29426 ft 530 kts 51°
2026-04-24 07:28 34.56887 -117.32525 29787 ft 533 kts 51°
2026-04-24 07:28 34.59050 -117.28867 30249 ft 533 kts 51°
2026-04-24 07:28 34.61207 -117.25218 30694 ft 532 kts 51°
2026-04-24 07:28 34.63359 -117.21574 31116 ft 531 kts 51°
2026-04-24 07:29 34.65511 -117.17928 31434 ft 531 kts 51°
2026-04-24 07:29 34.67666 -117.14273 31832 ft 531 kts 51°
2026-04-24 07:29 34.69815 -117.10626 32248 ft 531 kts 51°
2026-04-24 07:29 34.71962 -117.06976 32653 ft 530 kts 50°
2026-04-24 07:30 34.74110 -117.03322 32934 ft 533 kts 50°
2026-04-24 07:30 34.76272 -116.99645 32977 ft 536 kts 50°
2026-04-24 07:30 34.80598 -116.92263 32976 ft 532 kts 50°
2026-04-24 07:31 34.84863 -116.84969 33012 ft 527 kts 51°
2026-04-24 07:31 34.89095 -116.77725 32997 ft 523 kts 51°
2026-04-24 07:32 34.93453 -116.70678 32994 ft 518 kts 44°
2026-04-24 07:32 34.98349 -116.64261 32991 ft 518 kts 42°
2026-04-24 07:33 35.03304 -116.57849 32975 ft 521 kts 42°
2026-04-24 07:33 35.08255 -116.51359 32959 ft 524 kts 43°
2026-04-24 07:34 35.13207 -116.44808 32940 ft 525 kts 43°
2026-04-24 07:34 35.18152 -116.38246 32977 ft 525 kts 43°
2026-04-24 07:35 35.23094 -116.31678 33032 ft 526 kts 43°
2026-04-24 07:35 35.25571 -116.28386 33411 ft 525 kts 43°
2026-04-24 07:35 35.28036 -116.25102 33939 ft 521 kts 43°
2026-04-24 07:36 35.30481 -116.21843 34347 ft 519 kts 43°
2026-04-24 07:36 35.32893 -116.18626 34607 ft 519 kts 43°
2026-04-24 07:36 35.35337 -116.15365 34842 ft 520 kts 43°
2026-04-24 07:36 35.37790 -116.12091 34912 ft 523 kts 43°
2026-04-24 07:37 35.42712 -116.05507 34954 ft 522 kts 43°